Theta_e
309 306 304 313 314 306 309 310 309 310 313 313 309 308 312 316 315 315 315 314 315 315 318 321 322 323 324 320 318 317 317 318 316 314 312 311 310 312 312 314 314 315 315 317
307 305 307 308 311 311 311 309 307 308 311 311 308 307 312 314 315 315 314 315 315 316 319 320 318 319 318 316 316 315 315 316 315 314 313 312 311 311 312 312 313 313 313 313
304 306 313 313 312 311 310 309 307 307 308 310 309 306 310 315 316 316 317 318 317 317 318 316 316 315 315 313 314 314 314 313 314 315 312 311 310 310 309 309 309 310 312 312
310 310 312 312 307 308 303 310 310 307 306 301 309 300 306 311 312 315 316 317 317 319 316 313 313 312 312 311 313 313 313 314 313 314 312 310 307 306 308 308 309 310 312 314
307 308 308 307 306 310 307 312 310 308 306 305 304 301 304 309 308 312 315 316 318 317 314 311 311 310 310 310 311 312 313 313 313 313 312 310 309 309 309 310 310 311 313 314
311 315 312 307 313 313 313 308 308 306 305 299 302 302 302 305 308 311 314 316 317 316 311 309 309 309 309 310 309 310 311 312 313 312 312 311 310 309 308 309 308 310 311 310
309 308 312 314 309 311 308 308 299 296 296 296 302 300 303 307 311 312 313 315 315 314 310 308 307 307 307 307 308 309 310 310 312 312 312 311 311 311 309 310 306 306 310 311
303 300 307 310 308 307 308 302 298 290 292 296 302 297 302 311 314 315 316 315 310 308 308 307 306 306 305 307 308 309 310 310 312 311 312 312 312 310 310 310 308 308 311 312
303 301 309 308 309 308 304 302 303 299 299 297 300 302 309 311 310 312 312 311 307 306 306 304 305 304 305 307 309 309 310 311 312 312 312 312 311 311 311 312 312 311 313 312
308 301 307 309 309 309 307 306 299 302 292 290 296 297 300 305 308 310 310 309 305 303 303 303 304 305 307 308 309 311 311 311 312 312 313 311 309 312 312 312 312 313 313 313
308 305 303 306 304 302 304 302 302 302 299 293 292 296 305 307 310 308 312 310 304 303 303 304 304 306 307 308 309 310 310 310 310 312 313 313 310 312 314 313 311 312 314 313
308 307 300 301 305 307 305 302 301 297 294 297 297 296 307 309 311 313 310 305 304 303 303 304 303 305 306 307 308 309 310 309 310 313 312 311 309 310 311 313 312 313 313 313
309 303 298 298 303 306 303 303 303 303 302 296 292 295 307 308 307 307 305 305 303 303 303 302 305 304 305 307 308 309 310 311 312 313 309 308 310 309 309 310 312 313 313 313
314 304 300 296 298 303 299 301 303 302 295 295 296 297 303 305 304 303 303 302 302 303 301 303 304 305 305 307 308 309 311 311 312 312 310 309 313 311 310 313 312 313 313 313
311 300 302 301 301 301 299 299 300 299 300 295 298 298 301 303 303 303 303 303 302 301 302 304 304 305 305 307 309 310 311 312 313 312 310 311 315 316 315 316 313 314 314 313
310 301 303 299 302 302 299 301 301 300 298 298 299 297 302 302 302 301 302 302 302 303 303 304 305 305 305 307 308 309 311 312 313 312 312 312 315 315 316 315 315 314 314 313
308 305 301 295 302 301 295 300 300 300 301 300 296 300 303 303 301 302 302 303 303 303 303 304 305 306 307 307 309 310 311 313 312 312 313 314 313 314 315 315 314 313 313 313
309 307 305 298 299 288 299 305 304 301 301 303 303 303 302 302 302 304 305 304 304 304 304 305 307 307 308 309 310 311 312 311 312 313 313 314 314 310 314 314 314 314 315 314
312 307 299 296 294 296 297 300 301 299 298 303 301 302 302 302 303 304 305 305 305 306 307 308 309 308 309 309 311 311 311 311 312 313 314 314 314 312 307 308 314 317 316 316
311 311 304 299 292 287 297 303 308 308 292 304 303 302 302 302 297 301 306 306 306 307 308 309 308 309 309 310 311 311 310 310 312 313 314 315 315 314 311 308 312 316 317 316
303 305 300 298 296 295 304 305 306 291 295 307 305 304 304 301 304 307 308 307 308 309 308 308 309 309 310 311 311 311 311 311 314 315 315 315 316 314 314 310 310 312 314 316
301 299 299 299 294 290 308 305 298 304 308 307 307 306 305 307 308 308 307 307 308 308 309 309 309 309 311 311 311 311 311 314 315 316 315 315 316 314 315 315 311 308 310 311
300 303 300 301 299 309 309 308 311 310 308 307 307 308 308 308 307 308 307 308 308 309 310 310 309 310 311 312 312 312 313 314 315 315 315 312 315 313 317 315 314 308 306 304
307 309 305 303 307 308 310 311 310 309 309 310 309 308 307 308 309 309 309 308 308 309 309 310 310 309 310 312 313 314 315 315 315 315 316 315 313 314 314 316 314 311 306 304
305 308 305 305 308 308 308 310 309 310 310 311 310 308 308 309 309 309 309 309 310 310 310 310 309 310 311 313 313 315 315 315 315 316 315 314 312 314 316 316 314 313 312 304
306 303 304 300 306 306 307 309 310 309 310 311 308 307 309 309 308 309 309 309 310 311 312 310 311 311 312 312 313 314 316 316 315 314 312 313 314 314 314 313 313 299 297 293
Wind_Speed
1 5 5 17 11 1 11 12 12 7 3 6 7 8 9 6 7 7 6 6 4 4 2 2 4 6 5 7 7 9 9 8 8 7 8 8 9 7 7 7 11 11 10 10
3 4 3 4 9 14 14 17 8 7 3 2 8 6 6 6 6 7 8 7 6 4 2 3 5 6 8 8 8 7 8 8 7 6 6 6 7 6 7 8 10 10 11 10
2 4 13 14 14 16 11 6 12 8 8 6 10 5 8 5 6 8 8 6 5 4 2 3 6 7 7 8 7 7 8 8 8 8 7 7 7 8 7 9 8 10 10 9
6 5 14 13 9 7 4 4 16 18 8 3 6 2 7 7 8 10 10 7 6 5 5 5 5 6 7 7 6 7 8 8 9 10 9 10 8 9 9 8 9 9 9 10
4 5 5 5 6 4 6 12 12 9 5 8 8 5 6 7 9 9 8 6 6 4 5 7 7 6 7 7 7 7 7 8 10 10 9 8 9 8 7 8 11 10 8 9
4 3 6 6 12 13 20 16 11 4 1 4 4 4 4 5 3 7 6 6 5 4 7 7 6 5 7 7 7 7 8 8 10 10 10 10 11 11 9 10 9 10 8 7
3 4 6 12 15 5 6 9 3 4 4 2 2 5 3 2 2 3 7 9 6 5 7 6 5 6 7 8 8 8 10 10 10 11 11 11 10 9 8 9 7 8 8 7
1 3 7 5 1 5 12 1 6 8 4 2 3 4 4 4 4 4 7 9 8 7 7 6 4 6 7 7 8 9 10 10 10 10 11 9 9 7 6 7 6 6 6 7
2 3 1 8 2 1 6 3 1 5 2 3 2 2 5 2 3 4 7 7 7 7 6 4 4 5 6 7 7 8 10 10 10 10 9 9 8 8 8 7 6 6 7 6
2 3 3 3 2 11 5 5 2 2 2 3 2 3 4 3 5 6 7 6 7 6 5 4 5 5 6 6 6 7 8 9 9 9 9 8 7 7 7 6 7 7 7 8
1 2 2 1 6 5 1 2 6 4 4 4 2 4 5 7 2 3 5 6 8 7 5 3 3 4 5 6 6 7 8 9 10 9 9 9 7 8 7 6 6 7 6 6
4 3 3 4 3 8 7 5 4 4 4 4 3 4 6 6 6 6 2 7 7 6 4 1 2 4 5 6 7 7 8 9 9 9 8 8 6 7 7 7 6 6 6 6
1 4 3 4 5 4 7 6 3 5 2 5 3 4 5 5 5 6 3 6 7 5 3 1 2 4 5 6 7 7 8 9 8 8 7 7 6 6 6 6 7 6 6 7
6 5 4 3 5 4 8 13 10 6 5 4 5 3 7 9 7 3 3 6 7 5 2 1 3 5 5 5 6 7 8 7 7 7 7 7 8 5 4 5 6 6 6 7
5 7 12 14 16 16 16 15 14 13 5 5 4 5 8 8 7 2 2 4 3 2 3 2 4 5 4 5 6 7 7 7 7 7 7 8 7 7 6 6 5 6 6 6
4 5 8 13 14 14 17 15 13 8 6 6 5 5 4 4 3 1 3 3 3 3 3 2 2 3 3 5 6 6 7 6 7 7 7 6 8 7 6 5 6 5 6 6
4 5 3 3 12 5 6 11 9 4 9 5 7 7 6 5 3 2 3 4 2 3 2 2 3 4 3 5 5 6 7 6 7 6 7 7 7 6 6 5 5 5 5 4
4 4 2 2 4 1 2 9 4 9 7 7 7 7 5 5 3 4 5 3 2 2 2 2 3 3 3 4 5 6 5 6 6 6 6 6 6 6 5 4 4 4 3 4
4 4 4 2 4 4 3 11 6 2 5 6 8 8 4 2 6 1 4 4 2 1 1 2 2 2 4 5 5 6 5 5 5 5 6 6 6 5 4 3 4 3 3 3
11 9 5 2 4 6 11 13 6 7 7 6 7 9 6 4 6 6 5 4 3 2 2 2 2 3 4 4 5 6 5 4 5 5 6 6 6 6 6 5 4 3 3 3
5 5 7 4 4 5 11 10 2 4 7 8 6 7 4 5 6 6 6 4 3 3 3 3 4 5 6 5 4 6 5 5 5 6 6 6 6 6 5 5 3 3 3 4
6 5 4 2 4 4 13 9 8 3 3 5 7 6 6 6 9 7 5 5 5 6 5 5 6 6 5 5 5 5 6 5 6 6 7 6 6 5 4 5 4 3 4 4
3 5 4 5 5 5 5 5 4 4 6 3 6 6 6 7 6 6 6 6 7 7 6 5 6 6 6 5 6 6 5 5 6 6 6 6 6 6 6 5 5 4 3 3
3 6 3 3 9 10 12 9 9 6 8 7 5 6 4 9 7 7 7 6 6 6 6 6 6 8 7 5 6 7 6 5 6 7 7 6 6 7 5 5 4 4 4 3
4 7 5 5 10 4 12 15 13 11 9 11 8 8 8 8 10 8 8 7 6 6 6 6 7 8 8 6 6 6 6 6 5 6 6 7 5 7 7 5 5 4 5 4
7 4 4 1 4 2 4 10 13 13 14 14 11 11 10 9 11 10 10 7 7 8 7 7 8 9 9 8 8 7 7 6 6 6 5 6 6 6 6 7 7 9 10 6
Wind_Direction
93 201 195 196 206 6 137 140 141 119 69 136 130 129 145 128 138 155 164 177 175 187 218 263 31 34 60 61 60 40 29 15 5 359 354 349 347 338 338 347 346 345 345 343
174 149 273 120 151 128 132 129 121 136 115 108 158 135 157 159 173 170 177 185 183 180 225 95 48 57 65 63 48 34 23 16 11 1 351 337 335 341 341 345 342 347 343 341
140 74 133 127 120 126 149 149 170 144 135 113 160 164 175 171 160 174 186 172 176 194 237 60 59 66 70 57 34 23 21 13 16 3 353 352 354 352 351 349 344 341 334 328
58 100 133 142 141 191 164 241 156 146 162 157 202 191 199 178 188 195 175 181 177 168 114 77 80 80 65 43 30 31 24 22 18 9 2 3 358 348 348 338 343 336 338 333
89 133 145 82 12 60 81 120 129 140 109 143 190 263 119 179 214 215 168 159 163 140 113 92 87 71 53 31 26 21 14 21 15 7 3 355 351 347 336 347 341 353 351 353
66 21 21 50 34 98 126 115 113 105 99 242 155 270 141 183 184 132 150 144 146 133 108 98 88 62 38 25 18 16 10 15 10 6 6 5 354 339 344 349 358 354 350 345
57 38 104 115 91 140 178 170 149 223 214 315 129 211 2 212 82 134 155 138 126 114 120 108 67 32 19 18 14 7 10 2 359 1 4 2 345 339 334 346 1 335 353 352
155 165 2 3 265 200 176 222 294 297 272 60 159 235 83 30 78 99 119 125 115 109 113 101 61 18 15 12 9 6 3 2 358 354 355 347 350 344 337 353 347 328 346 344
131 115 240 40 56 240 150 219 53 108 97 229 135 154 154 90 80 133 141 137 123 121 127 105 54 26 7 9 12 4 1 353 355 354 344 348 348 341 344 346 337 341 353 349
90 137 18 24 255 55 27 106 256 54 269 287 115 2 336 274 212 183 192 165 135 136 141 90 36 16 11 358 358 355 356 350 343 341 345 338 324 338 342 341 352 357 358 355
48 354 85 281 18 349 39 77 65 95 344 335 11 76 360 326 318 253 227 171 158 164 141 87 35 27 11 355 355 355 353 350 347 338 339 331 337 324 343 354 358 2 357 0
21 74 66 65 46 78 63 49 18 345 99 48 1 78 1 336 343 328 131 146 159 151 146 70 6 10 5 360 360 353 348 349 338 345 340 335 330 336 352 0 6 358 2 8
91 35 152 147 167 84 47 26 73 93 102 39 348 60 38 36 25 21 130 143 144 162 167 174 13 359 4 349 350 345 347 344 341 344 339 327 332 356 356 357 357 0 359 4
85 63 355 344 50 74 78 47 46 62 56 97 53 27 29 359 350 46 117 152 163 175 179 313 344 5 353 343 345 343 343 346 348 349 343 335 346 352 336 348 349 3 354 14
69 69 87 77 80 82 74 58 48 56 57 38 27 351 8 353 340 349 155 159 171 210 242 283 331 346 333 340 345 343 342 342 344 341 341 338 352 356 345 357 2 357 21 29
28 120 101 84 75 78 72 54 42 45 30 57 27 46 345 1 27 206 178 196 228 274 281 310 323 312 320 332 338 337 340 341 337 341 350 341 354 11 14 19 23 32 43 46
80 133 122 168 14 360 41 24 24 64 47 4 21 2 345 341 339 255 206 231 297 331 314 301 304 304 300 316 325 329 331 328 335 341 334 13 1 16 24 19 25 37 36 28
112 89 48 88 99 40 109 31 33 81 53 26 8 354 349 335 326 269 234 262 274 327 329 299 295 278 290 314 318 321 320 325 330 338 343 358 13 4 14 16 29 18 2 6
36 114 94 118 86 230 44 354 330 338 57 12 346 351 353 328 283 259 245 240 283 291 323 303 297 286 303 309 324 321 312 322 328 344 341 343 349 347 359 14 330 356 335 344
52 64 92 103 73 28 353 348 1 183 54 6 347 350 330 314 332 16 347 231 223 213 225 253 222 258 278 311 316 311 303 308 316 332 324 326 343 348 356 345 340 329 293 307
354 19 49 75 92 59 350 347 245 50 352 339 339 343 327 307 324 332 317 237 250 254 246 243 244 264 281 286 285 297 300 291 317 310 306 318 334 331 330 327 306 307 306 288
20 359 31 36 65 57 3 29 55 12 332 316 333 334 311 299 300 303 294 265 256 255 257 251 255 264 276 266 256 273 282 308 309 307 304 320 326 324 315 304 297 289 297 291
40 12 23 14 59 28 17 21 357 335 314 352 312 325 299 293 293 302 286 280 274 260 260 261 253 269 269 261 247 254 267 291 310 306 310 306 319 313 318 305 302 267 256 304
49 22 39 176 40 3 22 8 348 305 294 330 303 287 269 280 294 288 279 275 268 262 259 258 259 263 273 261 241 247 258 267 290 301 303 307 314 321 311 307 297 267 255 266
354 319 0 64 12 342 23 17 357 345 334 329 318 283 275 284 285 289 290 287 277 263 259 254 257 267 271 269 255 250 247 248 263 284 294 294 305 299 315 309 301 273 236 240
3 346 22 106 292 279 330 1 356 358 356 350 336 325 320 297 287 289 278 273 268 262 260 246 249 256 264 268 265 251 238 244 260 272 283 291 301 311 302 316 313 216 247 217